• In Uzbekistan
  • List of Countries
  • For 7 days
  • Water Temperature
  • Weather Map
  • Weather Widgets
  • user-avatar
    Login

    Hourly Weather Yulara

    Today, 28 February, Friday

    Time Temperature Precipitation Wind Pressure Humidity
    00:00 +30°C° 0 mm 7 mps 716 mmHg 28%
    01:00 +29°C° 0 mm 7 mps 716 mmHg 29%
    02:00 +28°C° 0 mm 7 mps 716 mmHg 31%
    03:00 +27°C° 0 mm 7 mps 716 mmHg 33%
    04:00 +27°C° 0 mm 7 mps 716 mmHg 31%
    05:00 +26°C° 0 mm 7 mps 716 mmHg 29%
    06:00 +24°C° 0 mm 7 mps 717 mmHg 27%
    07:00 +27°C° 0 mm 7 mps 717 mmHg 26%
    08:00 +28°C° 0 mm 7 mps 717 mmHg 25%
    09:00 +31°C° 0 mm 8 mps 718 mmHg 23%
    10:00 +32°C° 0 mm 7 mps 717 mmHg 22%
    11:00 +34°C° 0 mm 7 mps 717 mmHg 20%
    12:00 +36°C° 0 mm 6 mps 717 mmHg 19%
    13:00 +37°C° 0 mm 5 mps 716 mmHg 18%
    14:00 +38°C° 0 mm 4 mps 715 mmHg 17%
    15:00 +38°C° 0 mm 3 mps 715 mmHg 16%
    16:00 +38°C° 0 mm 3 mps 715 mmHg 16%
    17:00 +38°C° 0 mm 4 mps 714 mmHg 16%
    18:00 +38°C° 0 mm 4 mps 714 mmHg 16%
    19:00 +36°C° 0 mm 4 mps 715 mmHg 18%
    20:00 +34°C° 0 mm 3 mps 715 mmHg 20%
    21:00 +31°C° 0 mm 3 mps 716 mmHg 22%
    22:00 +30°C° 0 mm 4 mps 716 mmHg 21%
    23:00 +29°C° 0 mm 6 mps 716 mmHg 21%

    Tomorrow, 29 February, Saturday

    Time Temperature Precipitation Wind Pressure Humidity
    00:00 +28°C° 0 mm 7 mps 716 mmHg 20%
    01:00 +27°C° 0 mm 6 mps 716 mmHg 20%
    02:00 +26°C° 0 mm 5 mps 715 mmHg 21%
    03:00 +25°C° 0 mm 4 mps 715 mmHg 21%
    04:00 +23°C° 0 mm 4 mps 715 mmHg 21%
    05:00 +23°C° 0 mm 4 mps 715 mmHg 22%
    06:00 +22°C° 0 mm 4 mps 716 mmHg 22%
    07:00 +26°C° 0 mm 5 mps 716 mmHg 19%
    08:00 +28°C° 0 mm 6 mps 716 mmHg 17%
    09:00 +32°C° 0 mm 7 mps 717 mmHg 14%
    10:00 +34°C° 0 mm 6 mps 716 mmHg 13%
    11:00 +35°C° 0 mm 5 mps 716 mmHg 13%
    12:00 +37°C° 0 mm 4 mps 715 mmHg 13%
    13:00 +38°C° 0 mm 3 mps 715 mmHg 12%
    14:00 +39°C° 0 mm 2 mps 714 mmHg 12%
    15:00 +39°C° 0 mm 1 mps 713 mmHg 12%
    16:00 +39°C° 0 mm 2 mps 713 mmHg 11%
    17:00 +39°C° 0 mm 2 mps 713 mmHg 11%
    18:00 +39°C° 0 mm 3 mps 713 mmHg 11%
    19:00 +37°C° 0 mm 4 mps 713 mmHg 12%
    20:00 +35°C° 0 mm 4 mps 714 mmHg 13%
    21:00 +32°C° 0 mm 5 mps 714 mmHg 15%
    22:00 +30°C° 0 mm 5 mps 714 mmHg 16%
    23:00 +29°C° 0 mm 5 mps 714 mmHg 16%

    Day after tomorrow, 1 March, Sunday

    Time Temperature Precipitation Wind Pressure Humidity
    00:00 +28°C° 0 mm 5 mps 714 mmHg 17%
    01:00 +28°C° 0 mm 4 mps 713 mmHg 18%
    02:00 +27°C° 0 mm 4 mps 713 mmHg 18%
    03:00 +26°C° 0 mm 4 mps 713 mmHg 18%
    04:00 +26°C° 0 mm 3 mps 713 mmHg 19%
    05:00 +25°C° 0 mm 3 mps 713 mmHg 19%
    06:00 +24°C° 0 mm 3 mps 713 mmHg 20%
    07:00 +27°C° 0 mm 4 mps 714 mmHg 17%
    08:00 +30°C° 0 mm 5 mps 714 mmHg 15%
    09:00 +34°C° 0 mm 6 mps 715 mmHg 12%
    10:00 +36°C° 0 mm 6 mps 714 mmHg 15%
    11:00 +39°C° 0 mm 6 mps 714 mmHg 17%
    12:00 +40°C° 0 mm 6 mps 714 mmHg 20%
    13:00 +41°C° 0 mm 6 mps 713 mmHg 20%
    14:00 +41°C° 0 mm 6 mps 712 mmHg 20%
    15:00 +42°C° 0 mm 6 mps 712 mmHg 19%
    16:00 +38°C° 0.2 mm 8 mps 712 mmHg 31%
    17:00 +33°C° 0.2 mm 10 mps 712 mmHg 43%
    18:00 +28°C° 0.2 mm 13 mps 712 mmHg 55%
    19:00 +27°C° 0.4 mm 10 mps 713 mmHg 56%
    20:00 +27°C° 0.4 mm 7 mps 714 mmHg 57%
    21:00 +27°C° 0.4 mm 5 mps 715 mmHg 58%
    22:00 +26°C° 0.1 mm 5 mps 715 mmHg 61%
    23:00 +26°C° 0.1 mm 4 mps 715 mmHg 64%

    2 March, Monday

    Time Temperature Precipitation Wind Pressure Humidity
    00:00 +26°C° 0.1 mm 4 mps 715 mmHg 66%
    01:00 +25°C° 0 mm 3 mps 715 mmHg 69%
    02:00 +25°C° 0 mm 3 mps 715 mmHg 71%
    03:00 +25°C° 0 mm 2 mps 715 mmHg 74%
    04:00 +25°C° 0 mm 2 mps 715 mmHg 74%
    05:00 +25°C° 0 mm 1 mps 715 mmHg 75%
    06:00 +25°C° 0 mm 1 mps 715 mmHg 76%
    07:00 +25°C° 0 mm 2 mps 716 mmHg 71%
    08:00 +26°C° 0 mm 3 mps 716 mmHg 66%
    09:00 +27°C° 0 mm 5 mps 716 mmHg 61%
    10:00 +26°C° 0 mm 6 mps 716 mmHg 57%
    11:00 +26°C° 0 mm 6 mps 716 mmHg 52%
    12:00 +26°C° 0 mm 7 mps 716 mmHg 48%
    13:00 +26°C° 0 mm 7 mps 715 mmHg 46%
    14:00 +26°C° 0 mm 7 mps 715 mmHg 44%
    15:00 +26°C° 0 mm 6 mps 715 mmHg 42%
    16:00 +26°C° 0 mm 6 mps 715 mmHg 41%
    17:00 +26°C° 0 mm 5 mps 715 mmHg 40%
    18:00 +27°C° 0 mm 4 mps 715 mmHg 39%
    19:00 +26°C° 0 mm 4 mps 715 mmHg 39%
    20:00 +26°C° 0 mm 4 mps 716 mmHg 39%
    21:00 +26°C° 0 mm 4 mps 716 mmHg 39%
    22:00 +26°C° 0 mm 4 mps 716 mmHg 39%
    23:00 +26°C° 0 mm 4 mps 716 mmHg 39%

    3 March, Tuesday

    Time Temperature Precipitation Wind Pressure Humidity
    00:00 +26°C° 0 mm 4 mps 716 mmHg 38%
    01:00 +25°C° 0 mm 5 mps 716 mmHg 40%
    02:00 +25°C° 0 mm 5 mps 715 mmHg 41%
    03:00 +25°C° 0 mm 5 mps 715 mmHg 43%
    04:00 +23°C° 0 mm 5 mps 715 mmHg 43%
    05:00 +23°C° 0 mm 5 mps 715 mmHg 43%
    06:00 +23°C° 0 mm 6 mps 716 mmHg 43%
    07:00 +26°C° 0 mm 7 mps 716 mmHg 38%
    08:00 +28°C° 0 mm 8 mps 716 mmHg 33%
    09:00 +31°C° 0 mm 10 mps 717 mmHg 28%
    10:00 +33°C° 0 mm 10 mps 716 mmHg 25%
    11:00 +34°C° 0 mm 9 mps 716 mmHg 23%
    12:00 +37°C° 0 mm 9 mps 716 mmHg 21%
    13:00 +35°C° 0 mm 9 mps 715 mmHg 23%
    14:00 +35°C° 0 mm 9 mps 715 mmHg 25%
    15:00 +34°C° 0 mm 8 mps 714 mmHg 27%
    16:00 +32°C° 0.4 mm 7 mps 714 mmHg 34%
    17:00 +29°C° 0.4 mm 7 mps 714 mmHg 41%
    18:00 +27°C° 0.4 mm 6 mps 715 mmHg 49%
    19:00 +27°C° 0.1 mm 5 mps 715 mmHg 45%
    20:00 +28°C° 0.1 mm 4 mps 716 mmHg 42%
    21:00 +28°C° 0.1 mm 4 mps 716 mmHg 39%
    22:00 +27°C° 0 mm 4 mps 716 mmHg 43%
    23:00 +26°C° 0 mm 4 mps 716 mmHg 47%

    4 March, Wednesday

    Time Temperature Precipitation Wind Pressure Humidity
    00:00 +25°C° 0 mm 4 mps 716 mmHg 51%
    01:00 +23°C° 0 mm 4 mps 715 mmHg 56%
    02:00 +23°C° 0 mm 4 mps 715 mmHg 62%
    03:00 +22°C° 0 mm 4 mps 715 mmHg 67%
    04:00 +22°C° 0 mm 4 mps 715 mmHg 69%
    05:00 +21°C° 0 mm 5 mps 715 mmHg 71%
    06:00 +21°C° 0 mm 5 mps 715 mmHg 73%
    07:00 +23°C° 0 mm 5 mps 716 mmHg 64%
    08:00 +26°C° 0 mm 6 mps 716 mmHg 55%
    09:00 +28°C° 0 mm 6 mps 716 mmHg 45%
    10:00 +29°C° 0 mm 7 mps 716 mmHg 40%
    11:00 +32°C° 0 mm 7 mps 716 mmHg 34%
    12:00 +34°C° 0 mm 7 mps 715 mmHg 29%
    13:00 +33°C° 0 mm 7 mps 715 mmHg 28%
    14:00 +33°C° 0 mm 7 mps 714 mmHg 28%
    15:00 +33°C° 0 mm 7 mps 713 mmHg 28%
    16:00 +33°C° 0 mm 6 mps 714 mmHg 29%
    17:00 +32°C° 0 mm 6 mps 714 mmHg 29%
    18:00 +32°C° 0 mm 6 mps 714 mmHg 30%
    19:00 +30°C° 0 mm 6 mps 714 mmHg 32%
    20:00 +29°C° 0 mm 5 mps 715 mmHg 34%
    21:00 +28°C° 0 mm 4 mps 715 mmHg 36%
    22:00 +27°C° 0 mm 4 mps 715 mmHg 41%
    23:00 +26°C° 0 mm 3 mps 715 mmHg 47%
    Show more